Weather History for Marrakech, Morocco

Change the Weather History Date:

Thursday, October 28, 2010

  Actual Average Record
Temperature  
Mean Temperature 72 °F -  
Max Temperature 86 °F 71 °F 96 °F (2001)
Min Temperature 57 °F 50 °F 51 °F (2011)
Cooling Degree Days 6    
Growing Degree Days 22 (Base 50)    
Moisture  
Dew Point 44 °F    
Average Humidity 39    
Maximum Humidity 72    
Minimum Humidity 14    
Precipitation  
Precipitation 0.00 in 0.05 in - ()
Sea Level Pressure  
Sea Level Pressure 30.18 in    
Wind  
Wind Speed 3 mph ()    
Max Wind Speed 8 mph    
Max Gust Speed -    
Visibility 5.0 miles    
Events      
Averages and records for this station are not official NWS values.
T = Trace of Precipitation, MM = Missing Value Source: Averaged Metar Reports

Daily Weather History Graph

Daily Weather History Graph

Search for Another Location

Airport:

Trip Planner

Search our weather history database for the weather conditions in past years. The results will help you decide how hot, cold, wet, or windy it might be!

Date:

Astronomy

Oct. 28, 2010 Rise Set
Actual Time 6:44 AM WET 5:46 PM WET
Civil Twilight 6:19 AM WET 6:11 PM WET
Nautical Twilight 5:51 AM WET 6:40 PM WET
Astronomical Twilight 5:22 AM WET 7:08 PM WET
Moon 10:12 PM WET 11:43 AM WET
Length of Visible Light 11h 51m
Length of Day
11h 01m
Waning Gibbous, 72% of the Moon is Illuminated
Oct 28
Waning Gibbous
Oct 30
Last Quarter
Nov 6
New
Nov 13
First Quarter
Nov 21
Full

Hourly Weather History & Observations

Time (WET) Temp. Dew Point Humidity Pressure Visibility Wind Dir Wind Speed Gust Speed Precip Events Conditions
12:00 AM 66.2 °F 46.4 °F 49% 30.21 in - Variable 2.3 mph - N/A   Clear
12:30 AM 64.4 °F 46.4 °F 52% 30.21 in - Variable 1.2 mph - N/A   Clear
1:00 AM 64.4 °F 44.6 °F 49% 30.21 in - Variable 1.2 mph - N/A   Clear
1:30 AM 62.6 °F 44.6 °F 52% 30.21 in - Variable 2.3 mph - N/A   Clear
2:00 AM 62.6 °F 46.4 °F 55% 30.21 in - Variable 2.3 mph - N/A   Clear
2:30 AM 64.4 °F 46.4 °F 52% 30.21 in - SE 3.5 mph - N/A   Clear
2:46 AM 62 °F 46 °F 45% 30.18 in 6 mi ESE 2.3 mph - -  
3:00 AM 60.8 °F 46.4 °F 59% 30.18 in - ESE 2.3 mph - N/A   Clear
3:30 AM 59.0 °F 46.4 °F 63% 30.18 in - East 3.5 mph - N/A   Clear
4:00 AM 57.2 °F 46.4 °F 67% 30.18 in - East 4.6 mph - N/A   Clear
4:30 AM 60.8 °F 46.4 °F 59% 30.18 in - Variable 2.3 mph - N/A   Clear
5:00 AM 62.6 °F 46.4 °F 55% 30.18 in - South 3.5 mph - N/A   Clear
5:30 AM 62.6 °F 46.4 °F 55% 30.18 in - SSE 4.6 mph - N/A   Clear
5:48 AM 60 °F 47 °F 51% 30.19 in 6 mi East 2.3 mph - -  
6:00 AM 59.0 °F 46.4 °F 63% 30.18 in - Variable 2.3 mph - N/A   Clear
6:30 AM 59.0 °F 46.4 °F 63% 30.18 in - ESE 2.3 mph - N/A   Clear
7:00 AM 57.2 °F 48.2 °F 72% 30.21 in - East 1.2 mph - N/A   Clear
8:00 AM 60.8 °F 48.2 °F 63% 30.21 in - NE 1.2 mph - N/A   Clear
8:30 AM 64.4 °F 50.0 °F 59% 30.24 in - Variable 1.2 mph - N/A   Clear
9:00 AM 71 °F 48 °F 33% 30.19 in 6 mi East 2.3 mph - -   Clear
9:00 AM 71.6 °F 48.2 °F 43% 30.24 in - Variable 2.3 mph - N/A   Clear
9:30 AM 75.2 °F 48.2 °F 38% 30.24 in - Calm Calm - N/A   Clear
10:00 AM 75.2 °F 46.4 °F 36% 30.24 in - Variable 2.3 mph - N/A   Clear
10:30 AM 77.0 °F 46.4 °F 34% 30.24 in - NNE 3.5 mph - N/A   Clear
11:00 AM 78.8 °F 46.4 °F 32% 30.21 in 3.7 mi NW 3.5 mph - N/A   Unknown
11:30 AM 80.6 °F 46.4 °F 30% 30.21 in 3.7 mi Variable 2.3 mph - N/A   Unknown
11:48 AM 82 °F 47 °F 19% 30.13 in 4 mi North 4.6 mph - -   Clear
12:00 PM 82.4 °F 46.4 °F 28% 30.21 in 3.7 mi North 4.6 mph - N/A   Unknown
12:30 PM 84.2 °F 46.4 °F 27% 30.18 in 3.7 mi Variable 3.5 mph - N/A   Unknown
1:30 PM 86.0 °F 44.6 °F 23% 30.15 in 3.7 mi WNW 5.8 mph - N/A   Unknown
2:00 PM 86.0 °F 44.6 °F 23% 30.15 in - NW 8.1 mph - N/A   Clear
2:30 PM 86.0 °F 42.8 °F 22% 30.15 in - NW 8.1 mph - N/A   Clear
3:00 PM 86.0 °F 41.0 °F 20% 30.15 in - NNW 8.1 mph - N/A   Clear
3:30 PM 86.0 °F 41.0 °F 20% 30.15 in - WNW 6.9 mph - N/A   Clear
4:00 PM 86.0 °F 41.0 °F 20% 30.15 in - WNW 5.8 mph - N/A   Clear
4:30 PM 86.0 °F 39.2 °F 19% 30.15 in - NW 6.9 mph - N/A   Clear
5:00 PM 84.2 °F 39.2 °F 20% 30.15 in - WNW 5.8 mph - N/A   Clear
5:30 PM 84.2 °F 39.2 °F 20% 30.15 in - WNW 5.8 mph - N/A   Clear
5:48 PM 81 °F 40 °F 14% 30.08 in 7 mi WNW 4.6 mph - -   Clear
6:00 PM 80.6 °F 39.2 °F 23% 30.15 in - WNW 4.6 mph - N/A   Clear
6:30 PM 78.8 °F 39.2 °F 24% 30.15 in - West 3.5 mph - N/A   Clear
7:00 PM 77.0 °F 39.2 °F 26% 30.15 in - WSW 2.3 mph - N/A   Clear
7:30 PM 75.2 °F 41.0 °F 29% 30.15 in - WSW 3.5 mph - N/A   Clear
8:00 PM 73.4 °F 42.8 °F 33% 30.18 in - Variable 2.3 mph - N/A   Clear
8:30 PM 71.6 °F 42.8 °F 35% 30.18 in - Variable 2.3 mph - N/A   Clear
9:00 PM 70 °F 41 °F 24% 30.15 in 6 mi SSW 1.2 mph - -   Clear
9:00 PM 69.8 °F 41.0 °F 35% 30.18 in - SSW 1.2 mph - N/A   Clear
9:30 PM 69.8 °F 42.8 °F 38% 30.21 in - Variable 1.2 mph - N/A   Clear
10:00 PM 69.8 °F 42.8 °F 38% 30.21 in - SSE 3.5 mph - N/A   Clear
10:30 PM 69.8 °F 42.8 °F 38% 30.21 in - South 3.5 mph - N/A   Clear
11:00 PM 66.2 °F 42.8 °F 43% 30.21 in - Variable 2.3 mph - N/A   Clear
11:30 PM 69.8 °F 44.6 °F 40% 30.18 in - SSE 3.5 mph - N/A   Clear
11:45 PM 68 °F 43 °F 29% 30.14 in 6 mi South 3.5 mph - -